Regional Weather Roundup
Issued by NWS Wakefield, VA

Home | Current Version | Previous Version | Graphics & Text | Print | Product List | Glossary On
Versions: 1 2 3 4 5 6 7 8 9 10 11 12 13 14 15 16 17 18 19 20 21 22 23 24 25 26 27 28 29 30 31 32 33 34 35 36 37 38 39 40 41 42 43 44 45 46 47 48 49 50
000
ASUS41 KAKQ 250310
RWRAKQ

REGIONAL WEATHER ROUNDUP
NATIONAL WEATHER SERVICE WAKEFIELD VA
1000 PM EST WED DEC 24 2014

Note: "fair" indicates few or no clouds below 12,000 feet with no
significant weather and/or obstructions to visibility. * = Denotes
station may not report precipitation (e.g., rain,snow,etc.),
thunder or fog.

VAZ042-051-052>054-056-250400-
NORTHERN VIRGINIA

CITY           SKY/WX    TMP DP  RH WIND       PRES   REMARKS
WASH NATIONAL  CLOUDY    57  54  88 S3        29.57S FOG
DULLES         DRZL/FOG  52  52 100 S9        29.56S VSB 1/4
FORT BELVOIR   FOG       52  51  97 NW3       29.57F VSB 1/2
QUANTICO       FOG       52  50  93 CALM      29.57F VSB 1/2
FREDERICKSBRG* CLOUDY    61  61 100 S13       29.56F
STAFFORD*      CLOUDY    58  58 100 S6        29.60F
WARRENTON      DRIZZLE   53  53 100 SW3       29.58R
CULPEPER*      DRIZZLE   55  54  94 SW10      29.58S
MANASSAS*      CLOUDY    54  52  94 S5        29.57S
LEESBURG*      CLOUDY    54  54 100 S12       29.55S FOG
WINCHESTER     CLOUDY    46  43  87 CALM      29.52R FOG
FRONT ROYAL*   CLOUDY    48  46  93 CALM      29.51S
LURAY*         CLOUDY    61  59  94 SW13G21   29.52F
$$

VAZ048-049-060>072-079>083-250400-
CENTRAL AND SOUTH CENTRAL VIRGINIA

CITY           SKY/WX    TMP DP  RH WIND       PRES   REMARKS
RICHMOND       CLOUDY    65  62  90 S13       29.61S
CHESTERFIELD*  CLOUDY    64  55  72 S12G18    29.62F
PETERSBURG*    CLOUDY    66  64  93 S9        29.64S
HANOVER        CLOUDY    59  59 100 S7        29.61F
TAPPAHANNOCK*  CLOUDY    65  64  96 S12       29.61F
QUINTON*       CLOUDY    64  63  94 S10G23    29.62S
CHARLOTTSVILLE CLOUDY    53  52  96 S9        29.57S
GORDONSVILLE*  CLOUDY    51  51  99 SW7       29.58F
ORANGE*        CLOUDY    54  52  94 S8        29.60S
LOUISA*        FOG       55  54  94 SW6       29.59R VSB 1
BUMPASS*       CLOUDY    56  56  99 S5        29.59S
FARMVILLE*     CLOUDY    56  56 100 W5        29.63S FOG
CREWE*         CLOUDY    65  62  91 S13G20    29.61F
FORT PICKETT*  CLOUDY    64  62  94 S15G22    29.62F
CHASE CITY*    CLOUDY    64  64 100 S3        29.63F
CLARKSVILLE*   CLOUDY    63  63 100 S12G17    29.63F
SOUTH HILL*    CLOUDY    63  61  93 S10       29.69F
LAWRENCEVILLE* CLOUDY    64  62  95 S7        29.64S
EMPORIA*       CLOUDY    63  61  94 S7        29.66F
$$

VAZ088>098-250400-
SOUTHEAST VIRGINIA

CITY           SKY/WX    TMP DP  RH WIND       PRES   REMARKS
NORFOLK        CLOUDY    69  61  75 S17G24    29.64F
VIRGINIA BEACH CLOUDY    69  61  75 S14G21    29.67F
NORFOLK NAVAL  CLOUDY    71  61  70 S9G23     29.65F
WEST POINT*    CLOUDY    67  63  85 S9        29.64F
SALUDA*        MOCLDY    65  62  90 S10G18    29.62F
NEWPORT NEWS   CLOUDY    69  62  78 SW8       29.65F
LANGLEY AFB    CLOUDY    65  64  97 S10       29.64F
FORT EUSTIS    CLOUDY    64 N/A N/A S3        29.63F
WILLIAMSBURG*  CLOUDY    64  63  94 S6        29.65F
HR EXEC AP*    CLOUDY    66  63  88 S16G24    29.67F
FRANKLIN*      CLOUDY    66  64  94 S9G18     29.65S
WAKEFIELD      CLOUDY    65  62  90 S5        29.65S
$$

VAZ020-022-025-037-045-250400-
WEST CENTRAL AND SOUTHWEST VIRGINIA

CITY           SKY/WX    TMP DP  RH WIND       PRES   REMARKS
STAUNTON*      CLOUDY    58  54  84 SW13G23   29.57S
WAYNESBORO*    CLOUDY    58  54  85 SW10      29.57S
HOT SPRINGS VA CLOUDY    53  52  97 SW15G33   29.58S
LYNCHBURG      FOG       48  48 100 SW5       29.64R VSB 1
DANVILLE       CLOUDY    51  49  92 CALM      29.63F
SOUTH BOSTON*  CLOUDY    51  49  95 CALM      29.63F
MARTINSVILLE   CLOUDY    53  53 100 SW6       29.67S
ROANOKE        CLOUDY    49  48  97 S5        29.63S
BLACKSBURG     CLOUDY    55  52  88 W6        29.65R
DUBLIN*        CLOUDY    55  50  85 W18G25    29.66R
MARION*        CLOUDY    48  44  84 W18       29.73R
HILLSVILLE*    CLOUDY    52  51  95 SW10      29.65R
RICHLANDS*     LGT RAIN  41  38  89 W13G20    29.72S
WISE*          CLOUDY    41  37  87 W9        29.77R
ABINGDON*      CLOUDY    48  42  80 NW8       29.76R
$$

MDZ021>025-VAZ099-100-250400-
SOUTHERN MARYLAND AND THE DELMARVA PENINSULA

CITY           SKY/WX    TMP DP  RH WIND       PRES   REMARKS
PATUXENT RIVER CLOUDY    62  61  96 S9        29.58F
BAY BRIDGE APT FOG       55  55 100 S8        29.58F VSB 3/4
LEONARDTOWN    CLOUDY    63  61  94 S6        29.60S
DOVER          CLOUDY    63  63 100 S14       29.57F
GEORGETOWN     CLOUDY    64  61  90 S10       29.61F
EASTON         CLOUDY    63  63 100 S13       29.62
CAMBRIDGE      CLOUDY    61  59  94 S9        29.60S
SALISBURY      CLOUDY    69  63  81 S16G22    29.61F
OCEAN CITY     FOG       57  57 100 SW16G24   29.65F VSB 1
WALLOPS ISLAND FOG       54  54 100 SW10      29.66F VSB 1/2
ACCOMACK*      CLOUDY    61  59  94 S9G17     29.65F
$$

NCZ012>017-030>032-250400-
NORTH CENTRAL AND EASTERN NORTH CAROLINA

CITY           SKY/WX    TMP DP  RH WIND       PRES   REMARKS
ROANOKE RAPIDS CLOUDY    61  59  94 S6        29.66F
RALEIGH        CLOUDY    65  60  84 SW10      29.67F
ELIZABETH CITY CLOUDY    70  61  73 S14G21    29.70F
AHOSKIE*       CLOUDY    66  61  85 S9        29.68R
EDENTON*       CLOUDY    63  60  92 S13       29.71F
CURRITUCK*     CLOUDY    65  60  84 S8        29.70F
KILL DEVIL HLS CLOUDY    64  61  92 S7        29.75F
MANTEO         CLOUDY    61  57  88 S14       29.77F
CAPE HATTERAS  LGT RAIN  63  63 100 SW7G18    29.80F FOG
TARBORO*       CLOUDY    68  62  79 S8G16     29.70R
GOLDSBORO      CLOUDY    67  67  98 S9        29.69R
WASHINGTON     CLOUDY    66  62  88 S7        29.72S
GREENVILLE     CLOUDY    66  63  88 S9        29.74R
NEW BERN       LGT RAIN  68  63  84 S12       29.75F
WILMINGTON     CLOUDY    67  64  90 S10       29.76S
$$

VAZ048-250400-
ELSEWHERE

CITY           SKY/WX    TMP DP  RH WIND       PRES   REMARKS
HARRISBURG PA  DRIZZLE   50  50 100 E3        29.51F FOG
BALTIMORE      CLOUDY    57  56  96 S6        29.55F FOG
ANNAPOLIS      FOG       54  53  97 S10       29.57F VSB 3/4
ANDREWS AFB    NOT AVBL
PHILADELPHIA   CLOUDY    62  59  90 SW17      29.57F
HENDERSON NC   CLOUDY    64  61  88 S13G18    29.64F
GREENSBORO     CLOUDY    63  60  90 W21       29.64S
ROCKY MOUNT    CLOUDY    66  62  87 S8        29.68S
$$

VAZ100-250400-
MARINE

STATION/POSITION TIME  TEMP    WIND        PRES    WAVE   SWELL
                       AIR SEA DIR/SP/G            HT/PER HT/PER
                 (UTC) (F)     (DEG/KT/KT) (MB)    (FT/S) (FT/S)
CAPE MAY NJ      0300   54 47  160/  6/ 10 1002.9F
LEWES DE         0300   63 44  180/  6/  9 1002.5F
15NM E FENWICK I 0300   52 46              1003.5F   7/ 7
OCEAN-CITY-INLET 0300   50 45  210/ 14/ 16 1004.0R
WACHAPREAGUE VA  0300   54 48  220/  8/ 13 1004.3F
THOMAS POINT MD  0300   48 42  170/  9/  9 1002.6F
GOOSES REEF MD   0300   46     VRB 12/ 14  1000.6F   1/ 3
COVE POINT MD    0300   47     180/ 14/ 14 1001.8F
SOLOMONS ISLAND  0300      43                N/A
BISHOPS HEAD MD  0300   54 45  170/ 14/ 16 1001.7F
PINEY POINT MD   0300          200/ 11/ 12   N/A
POTOMAC MD       0300   53 43  190/ 10/ 12 1001.5F   1
CAMBRIDGE MD     0300   61 40  180/  6/ 12 1002.0S
LEWISETTA VA     0300   64 43  210/ 16/ 19 1001.8F
RAPPAHANNOCK LGT 0300          180/ 18/ 19 1004.1F
STINGRAY PT      0300   50 44  170/ 10/ 12 1003.9F   1/ 2
YORK RVR RNG VA  0300   55     190/ 11/ 13 1002.7F
YORKTOWN VA      0300   66 45  220/  7/  9 1003.2F
JAMESTOWN VA     0300   62 46  210/  8/ 10   N/A     0
DOMINION TERM VA 0300   62     180/ 15/ 21 1003.4F
KIPTOPEKE VA     0300      51  160/ 15/ 16   N/A
CHES BAY BRIDGE  0300   65 46  170/ 16/ 19 1003.6F
CAPE HENRY VA    0300   69     180/ 14/ 19 1003.5F
CHESAPEAKE LGHT  0200   57     190/ 29/ 30 1005.7S
WILLOUBY STN VA  0300   67     180/ 20/ 22 1003.8F
S CRANEY ISL VA  0300          180/ 14/ 19 1003.6F
CAPE HENRY BUOY  0200      48                N/A     5/ 7
1ST LANDING BUOY 0300   64 46  190/ 17/ 23 1003.8F   3/ 4
CAPE CHARLES BUO 0200      47                N/A     5/ 7   3/ 7
64NM E OF VA BCH 0300   59 53  190/ 17/ 19 1007.0F   7/ 8
DUCK PIER NC     0300   66 50  180/ 18/ 24 1006.1F
44100 DUCK FRF   0300      50                N/A     5/ 7   2/11
44056 DUCK FRF   0300      50                N/A     4/ 8
OREGON INLET NC  0300   58 52  180/ 12/ 13 1008.5R
HATTERAS NC      0300   62 56  190/  3/  8 1009.2F
DIAMOND SHLS NC  0300   75                 1008.8F   9/ 8
CAPE LOOKOUT NC  0200   62     190/  7/  8 1009.0F
$$


USA.gov is the U.S. government's official web portal to all federal, state and local government web resources and services.